Weather History for New Delhi, India

Change the Weather History Date:

Thursday, May 9, 2013

  Actual Average Record
Temperature  
Mean Temperature 92 °F -  
Max Temperature 105 °F 101 °F 114 °F (2002)
Min Temperature 78 °F 80 °F 69 °F (1998)
Cooling Degree Days 26    
Growing Degree Days 42 (Base 50)    
Moisture  
Dew Point 46 °F    
Average Humidity 21    
Maximum Humidity 39    
Minimum Humidity 10    
Precipitation  
Precipitation 0.00 in - - ()
Sea Level Pressure  
Sea Level Pressure 29.61 in    
Wind  
Wind Speed 5 mph ()    
Max Wind Speed 12 mph    
Max Gust Speed -    
Visibility 1.8 miles    
Events      
Averages and records for this station are not official NWS values.
T = Trace of Precipitation, MM = Missing Value Source: Averaged Metar Reports

Daily Weather History Graph

Daily Weather History Graph

Search for Another Location

Airport:

Trip Planner

Search our weather history database for the weather conditions in past years. The results will help you decide how hot, cold, wet, or windy it might be!

Date:

Astronomy

May. 09, 2013 Rise Set
Actual Time 5:34 AM IST 7:01 PM IST
Civil Twilight 5:09 AM IST 7:26 PM IST
Nautical Twilight 4:39 AM IST 7:57 PM IST
Astronomical Twilight 4:07 AM IST 8:28 PM IST
Moon 4:58 AM IST (5/9) 6:32 PM IST (5/9)
Length of Visible Light 14h 17m
Length of Day
13h 26m
Waning Crescent, 1% of the Moon is Illuminated
May 9
Waning Crescent
May 10
New
May 18
First Quarter
May 25
Full
Jun 1
Last Quarter

Hourly Weather History & Observations

Time (IST) Temp. Dew Point Humidity Pressure Visibility Wind Dir Wind Speed Gust Speed Precip Events Conditions
12:00 AM 93.2 °F 48.2 °F 21% 29.62 in 1.3 mi NNE 5.8 mph - N/A   Haze
12:30 AM 93.2 °F 48.2 °F 21% 29.62 in 1.3 mi NNE 5.8 mph - N/A   Haze
1:00 AM 93.2 °F 48.2 °F 21% 29.62 in 1.3 mi NNE 5.8 mph - N/A   Haze
1:30 AM 89.6 °F 48.2 °F 24% 29.62 in 1.3 mi WSW 4.6 mph - N/A   Haze
2:00 AM 87.8 °F 48.2 °F 25% 29.59 in 1.3 mi WSW 5.8 mph - N/A   Haze
2:30 AM 84.2 °F 51.8 °F 33% 29.59 in 1.0 mi WNW 2.3 mph - N/A   Haze
3:30 AM 80.6 °F 50.0 °F 34% 29.59 in 0.9 mi West 4.6 mph - N/A   Haze
4:00 AM 80.6 °F 50.0 °F 34% 29.59 in 0.9 mi WSW 4.6 mph - N/A   Haze
4:30 AM 80.6 °F 48.2 °F 32% 29.59 in 0.9 mi West 4.6 mph - N/A   Haze
5:00 AM 78.8 °F 50.0 °F 36% 29.59 in 0.9 mi West 5.8 mph - N/A   Haze
5:30 AM 78.8 °F 50.0 °F 36% 29.62 in 0.9 mi WSW 3.5 mph - N/A   Haze
6:00 AM 78.8 °F 50.0 °F 36% 29.62 in 0.9 mi WSW 4.6 mph - N/A   Haze
6:30 AM 78.8 °F 51.8 °F 39% 29.62 in 0.9 mi WSW 4.6 mph - N/A   Haze
7:00 AM 80.6 °F 51.8 °F 37% 29.65 in 0.9 mi WSW 3.5 mph - N/A   Haze
7:30 AM 82.4 °F 50.0 °F 32% 29.65 in 0.9 mi WSW 5.8 mph - N/A   Haze
8:30 AM 89.6 °F 50.0 °F 26% 29.68 in 1.0 mi West 5.8 mph - N/A   Haze
10:30 AM 96.8 °F 46.4 °F 18% 29.68 in 1.4 mi West 6.9 mph - N/A   Haze
12:00 PM 104.0 °F 41.0 °F 12% 29.65 in - WNW 11.5 mph - N/A   Haze
12:30 PM 104.0 °F 41.0 °F 12% 29.65 in - NW 9.2 mph - N/A   Haze
1:00 PM 105.8 °F 39.2 °F 10% 29.65 in - NW 8.1 mph - N/A   Haze
2:00 PM 105.8 °F 41.0 °F 11% 29.62 in 3.1 mi NW 11.5 mph - N/A   Haze
2:30 PM 105.8 °F 41.0 °F 11% 29.59 in 3.1 mi NW 9.2 mph - N/A   Haze
3:00 PM 105.8 °F 42.8 °F 12% 29.59 in 3.1 mi NW 11.5 mph - N/A   Haze
3:30 PM 105.8 °F 41.0 °F 11% 29.56 in 3.1 mi NNW 10.4 mph - N/A   Haze
4:00 PM 105.8 °F 41.0 °F 11% 29.56 in 3.1 mi West 8.1 mph - N/A   Haze
4:30 PM 105.8 °F 41.0 °F 11% 29.56 in 3.1 mi NNW 11.5 mph - N/A   Haze
5:00 PM 105.8 °F 41.0 °F 11% 29.56 in 3.1 mi NW 11.5 mph - N/A   Haze
5:30 PM 104.0 °F 41.0 °F 12% 29.56 in 3.1 mi NW 11.5 mph - N/A   Haze
6:00 PM 104.0 °F 39.2 °F 11% 29.56 in 3.1 mi WNW 10.4 mph - N/A   Haze
6:30 PM 102.2 °F 42.8 °F 13% 29.56 in 2.8 mi WNW 9.2 mph - N/A   Haze
7:00 PM 102.2 °F 42.8 °F 13% 29.56 in 2.5 mi NW 6.9 mph - N/A   Haze
7:30 PM 100.4 °F 42.8 °F 14% 29.56 in 2.5 mi WNW 4.6 mph - N/A   Haze
8:00 PM 98.6 °F 46.4 °F 17% 29.59 in 2.5 mi WNW 5.8 mph - N/A   Haze
8:30 PM 98.6 °F 46.4 °F 17% 29.62 in 2.2 mi NW 5.8 mph - N/A   Haze
9:30 PM 96.8 °F 48.2 °F 19% 29.62 in 1.6 mi Calm Calm - N/A   Haze
10:00 PM 95.0 °F 50.0 °F 22% 29.62 in 1.4 mi Calm Calm - N/A   Haze
10:30 PM 93.2 °F 50.0 °F 23% 29.62 in 1.2 mi Calm Calm - N/A   Haze
11:00 PM 93.2 °F 50.0 °F 23% 29.62 in 1.2 mi Calm Calm - N/A   Haze
11:30 PM 91.4 °F 50.0 °F 24% 29.62 in 1.1 mi Calm Calm - N/A   Haze